Regional Weather Roundup
Issued by NWS

Home | Current Version | Previous Version | Graphics & Text | Print | Product List | Glossary On
Versions: 1 2 3 4 5 6 7 8 9 10 11 12 13 14 15 16 17 18 19 20 21 22 23 24 25 26 27
328
ASUS43 KDMX 212007
RWRIA

WEATHER ROUNDUP FOR IOWA
NATIONAL WEATHER SERVICE DES MOINES IA
300 PM CDT THU MAY 21 2015

NOTE: "FAIR" INDICATES FEW OR NO CLOUDS BELOW 12,000 FEET WITH NO
SIGNIFICANT WEATHER AND/OR OBSTRUCTIONS TO VISIBILITY.

* - THESE STATIONS ARE NOT NWS STATIONS...THUS NOT UNDER NWS
QUALITY CONTROL.  THEY ALSO DO NOT REPORT WEATHER SUCH
AS PRECIPITATION OR FOG.

IAZ001>003-012>014-020>022-031>034-043>046-212100-
   NORTHWEST IOWA

CITY           SKY/WX    TMP DP  RH WIND       PRES   REMARKS
CARROLL *      SUNNY     73  39  29 NW20G29   30.14S
CHEROKEE *     SUNNY     72  39  30 NW14G22   30.14S
DENISON *      SUNNY     72  39  30 NW13      30.14F
LE MARS *      SUNNY     73  36  25 NW18G24   30.16F
ORANGE CITY *  SUNNY     72  39  30 NW22G28   30.14F
SHELDON *      MOSUNNY   72  30  21 NW16G31   30.11F
SIOUX CITY     SUNNY     74  36  25 NW15      30.17F
SPENCER        MOSUNNY   75  36  24 NW29G44   30.10F
STORM LAKE *   SUNNY     72  37  28 NW18G29   30.14F
$$

IAZ055>058-069>071-079>083-090>094-212100-
   SOUTHWEST IOWA

CITY           SKY/WX    TMP DP  RH WIND       PRES   REMARKS
ATLANTIC *     SUNNY     70  43  37 NW14      30.17F
AUDUBON *      SUNNY     72  36  26 NW9G18    30.17S
CLARINDA *     SUNNY     70  39  32 NW9G16    30.22S
COUNCIL BLFS * SUNNY     70  43  37 W8G15     30.20F
CRESTON *      SUNNY     68  45  42 NW13G23   30.18F
HARLAN  *      SUNNY     70  39  32 NW14G21   30.21S
LAMONI         SUNNY     71  46  40 W9        30.18S
RED OAK *      SUNNY     70  43  37 NW13      30.20S
SHENANDOAH *   SUNNY     70  39  32 NW8       30.21F
$$

IAZ047>049-059>061-072>074-084-212100-
   CENTRAL IOWA

CITY           SKY/WX    TMP DP  RH WIND       PRES   REMARKS
AMES           SUNNY     75  39  27 NW18G26   30.10F
ANKENY *       SUNNY     72  43  35 W12G23    30.11S
CHARITON *     SUNNY     70  43  37 W15G21    30.15S
DES MOINES     MOSUNNY   75  38  26 NW17G25   30.12S
GRINNELL*      SUNNY     72  41  33 W14G22    30.10F
KNOXVILLE *    SUNNY     72  37  28 NW16G25   30.11F
MARSHALLTOWN   MOSUNNY   73  42  32 NW18G32   30.07F
PELLA *        SUNNY     72  50  46 W13G20    30.12F
PERRY *          N/A     73  37  27 NW15G21   30.13S
$$

IAZ004>006-015-016-023>025-035-036-212100-
   NORTH CENTRAL IOWA

CITY           SKY/WX    TMP DP  RH WIND       PRES   REMARKS
ALGONA *       SUNNY     73  36  25 NW18G29   30.08S
CLARION *      MOSUNNY   73  37  27 NW24G32   30.07S
ESTHERVILLE    SUNNY     72  35  25 NW28G35   30.09S
FORT DODGE *   SUNNY     72  45  37 NW14G23   30.10F
MASON CITY     SUNNY     74  37  26 NW28G40   30.06F
FOREST CITY *  SUNNY     70  36  28 W23G33    30.06S
IOWA FALLS *     N/A     73  41  31 W18G28    30.08F
$$

IAZ007>011-017>019-026>030-037>042-050>054-066-212100-
   NORTHEAST IOWA

CITY           SKY/WX    TMP DP  RH WIND       PRES   REMARKS
CEDAR RAPIDS   SUNNY     70  45  40 W9        30.07F
CHARLES CITY * SUNNY     73  34  23 W28G45    30.04S
CLINTON *      SUNNY     70  39  32 NW14G22   30.10F
DECORAH *      MOSUNNY   70  37  30 NW9G20    30.00F
DUBUQUE        SUNNY     67  44  43 W15G23    30.06F
MONTICELLO *   SUNNY     68  46  45 W12G22    30.06F
OELWEIN *      SUNNY     70  46  43 W14G22    30.05F
WATERLOO       SUNNY     72  45  37 W14G24    30.04F
$$

IAZ064-065-067-068-078-212100-
   EAST CENTRAL IOWA

CITY           SKY/WX    TMP DP  RH WIND       PRES   REMARKS
DAVENPORT      SUNNY     70  38  31 W12G21    30.09F
IOWA CITY      SUNNY     70  42  36 W14G21    30.10F
MT. PLEASANT * SUNNY     68  41  37 W10G18    30.13S
MUSCATINE *    SUNNY     70  39  32 NW13G25   30.10F
QUAD CITIES    SUNNY     68  39  34 W12G25    30.09F
$$

IAZ062-063-075>077-085>089-095>099-212100-
   SOUTHEAST IOWA

CITY           SKY/WX    TMP DP  RH WIND       PRES   REMARKS
BURLINGTON     SUNNY     67  45  45 NW9       30.13F
FAIRFIELD *    SUNNY     70  43  37 W12       30.12F
FORT MADISON * MOSUNNY   66  45  45 W8        30.14F
KEOKUK *       MOSUNNY   68  46  45 W10G17    30.14F
OSKALOOSA *      N/A     70  39  32 W16G23    30.12S
CENTERVILLE *  SUNNY     68  68 100 W17G25    30.17S
OTTUMWA        SUNNY     70  45  40 NW13G21   30.12F
WASHINGTON *   SUNNY     70  39  32 NW12G18   30.13S
$$

ABBREVIATIONS USED IN REMARKS
   TC - TEMPERATURES IN CELSIUS
  WCI - WIND CHILL INDEX
   HX - HEAT INDEX
  VSB - VISIBILITY
$$




USA.gov is the U.S. government's official web portal to all federal, state and local government web resources and services.